Location: Unspecified
(47.9110°N, 14.3980°E)
Time: 04:42:54
(UTC+00:00)

Cosmos 2360 Rocket - Pass Details

Date: 06 August 2020
Orbit: 834 x 845 km, 71.0° (Epoch: 23 September)

Event Time Altitude Azimuth Distance (km) Brightness Sun altitude
Rises 20:59:38 0° 337° (NNW) 3,416 6.9 -19.6°
Reaches altitude 10° 21:02:32 10° 350° (N) 2,477 5.6 -19.8°
Maximum altitude 21:07:12 25° 45° (NE) 1,637 3.8 -20.3°
Enters shadow 21:10:25 16° 90° (E) 2,077 3.9 -20.5°
